HJ3GNC-11 Weather Reports


time (UTC)temp
F
wind
direction
speed
knots
gust
knots
rain 1hr
in
rain 24hr
in
rain mn
in
humidity
%
barometer
mb
20260507132650 52 90 0.0 0.0 0.00 0.00 0.00 91 1020.0
20260507125439 50 90 0.0 0.0 0.00 0.00 0.00 91 1020.0
20260507122241 48 73 0.0 0.0 0.00 0.00 0.00 91 1020.0
20260507120642 52 73 0.0 0.0 0.00 0.00 0.00 89 1020.0
20260507115028 50 78 0.0 0.0 0.00 0.00 0.00 89 1020.0
20260507113443 48 78 0.0 0.0 0.00 0.00 0.00 89 1020.0
20260507111854 48 68 0.0 0.0 0.00 0.00 0.00 93 1020.0
20260507110306 48 68 0.0 0.0 0.00 0.00 0.00 92 1020.0
20260507104725 48 68 0.0 0.0 0.00 0.00 0.00 90 1020.0
20260507103144 48 68 0.0 0.0 0.00 0.00 0.00 90 1020.0
20260507101604 48 74 0.0 0.0 0.00 0.00 0.00 90 1020.0
20260507100024 48 74 0.0 0.0 0.00 0.00 0.00 90 1020.0
20260507094441 48 74 0.0 0.0 0.00 0.00 0.00 90 1020.0
20260507092858 48 77 0.0 0.0 0.00 0.00 0.00 91 1020.0
20260507091313 47 77 0.0 0.0 0.00 0.00 0.00 91 1020.0
20260507085728 47 77 0.0 0.0 0.00 0.00 0.00 91 1020.0
20260507084145 47 77 0.0 0.0 0.00 0.00 0.00 91 1020.0
20260507082601 47 74 0.0 0.0 0.00 0.00 0.00 92 1021.0
20260507081015 47 74 0.0 0.0 0.00 0.00 0.00 92 1021.0
20260507075433 47 74 0.0 0.0 0.00 0.00 0.00 92 1021.0
20260507073847 47 74 0.0 0.0 0.00 0.00 0.00 92 1021.0
20260507072306 47 70 0.0 0.0 0.00 0.00 0.00 92 1021.0
20260507070715 48 70 0.0 0.0 0.00 0.00 0.00 92 1021.0
20260507065129 48 70 0.0 0.0 0.00 0.00 0.00 93 1021.0
20260507063545 48 70 0.0 0.0 0.00 0.00 0.00 92 1021.0
20260507062002 48 73 0.0 0.0 0.00 0.00 0.00 91 1021.0
20260507060419 48 73 0.0 0.0 0.00 0.00 0.00 91 1021.0
20260507054838 48 73 0.0 0.0 0.00 0.00 0.00 91 1021.0
20260507053257 48 73 0.0 0.0 0.00 0.00 0.00 90 1022.0
20260507051713 50 72 0.0 0.0 0.00 0.00 0.00 86 1022.0
20260507050120 50 72 0.0 0.0 0.00 0.00 0.00 86 1022.0
20260507044534 50 72 0.0 0.0 0.00 0.00 0.00 87 1022.0
20260507042947 51 69 0.0 0.0 0.00 0.00 0.00 82 1022.0
20260507041403 51 69 0.0 0.0 0.00 0.00 0.00 82 1022.0
20260507035817 50 69 0.0 0.0 0.00 0.00 0.00 85 1022.0
20260507034230 50 69 0.0 0.0 0.00 0.00 0.00 82 1022.0
20260507032645 52 75 0.0 0.0 0.00 0.00 0.00 73 1022.0
20260507031054 52 75 0.0 0.0 0.00 0.00 0.00 74 1022.0
20260507025459 52 75 0.0 0.0 0.00 0.00 0.00 79 1022.0
20260507023913 52 75 0.0 0.0 0.00 0.00 0.00 77 1022.0
20260507001726 56 75 0.0 0.0 0.00 0.00 0.00 74 1018.0
20260507000138 56 75 0.0 0.0 0.00 0.00 0.00 74 1018.0
20260506234549 56 75 0.0 0.0 0.00 0.00 0.00 84 1018.0
20260506233003 58 73 0.0 0.0 0.00 0.00 0.00 82 1016.0
20260506231404 58 73 0.0 0.0 0.00 0.00 0.00 83 1016.0
20260506225815 58 73 0.0 0.0 0.00 0.00 0.00 83 1016.0
20260506224224 64 73 0.0 0.0 0.00 0.00 0.00 83 1016.0
20260506222630 62 86 0.0 0.0 0.00 0.00 0.00 83 1014.0
20260506221044 60 86 0.0 0.0 0.00 0.00 0.00 83 1014.0
20260506215446 65 86 0.0 0.0 0.00 0.00 0.00 83 1014.0
20260506213823 63 86 0.0 0.0 0.00 0.00 0.00 83 1014.0
20260506212150 61 86 0.0 0.0 0.00 0.00 0.00 83 1014.0
20260506210550 59 86 0.0 0.0 0.00 0.00 0.00 83 1014.0
20260506205001 66 86 0.0 0.0 0.00 0.00 0.00 83 1014.0
20260506203417 64 86 0.0 0.0 0.00 0.00 0.00 83 1014.0
20260506201822 62 89 0.0 0.0 0.00 0.00 0.00 83 1014.0
20260506200230 60 89 0.0 0.0 0.00 0.00 0.00 83 1014.0
20260506194647 69 89 0.0 0.0 0.00 0.00 0.00 84 1014.0
20260506193101 67 89 0.0 0.0 0.00 0.00 0.00 84 1014.0
20260506191500 65 98 0.0 0.0 0.00 0.00 0.00 84 1014.0
20260506185907 63 98 0.0 0.0 0.00 0.00 0.00 84 1014.0
20260506184320 61 98 0.0 0.0 0.00 0.00 0.00 84 1015.0
20260506182736 59 114 0.0 0.0 0.00 0.00 0.00 84 1016.0
20260506181142 57 114 0.0 0.0 0.00 0.00 0.00 84 1016.0
20260506175535 66 114 0.0 0.0 0.00 0.00 0.00 83 1016.0
20260506173951 64 121 0.0 0.0 0.00 0.00 0.00 83 1017.0
20260506172403 62 125 0.0 0.0 0.00 0.00 0.00 83 1018.0
20260506170819 60 125 0.0 0.0 0.00 0.00 0.00 83 1018.0
20260506165235 58 125 0.0 0.0 0.00 0.00 0.00 83 1018.0
20260506163641 56 125 0.0 0.0 0.00 0.00 0.00 83 1018.0
20260506162033 62 125 0.0 0.0 0.00 0.00 0.00 87 1020.0
20260506160444 60 125 0.0 0.0 0.00 0.00 0.00 87 1020.0
20260506154853 58 125 0.0 0.0 0.00 0.00 0.00 87 1020.0
20260506153300 56 125 0.0 0.0 0.00 0.00 0.00 87 1020.0
20260506151626 61 123 0.0 0.0 0.00 0.00 0.00 89 1020.0
20260506150020 59 123 0.0 0.0 0.00 0.00 0.00 89 1020.0
20260506144434 57 123 0.0 0.0 0.00 0.00 0.00 89 1020.0
20260506142846 60 106 0.0 0.0 0.00 0.00 0.00 90 1020.0
20260506141255 58 106 0.0 0.0 0.00 0.00 0.00 90 1020.0
20260506135703 56 106 0.0 0.0 0.00 0.00 0.00 90 1020.0
20260506134119 54 106 0.0 0.0 0.00 0.00 0.00 90 1020.0